Clinton-Sherman, OK

9:54 AM CDT on May 27, 2018 (GMT -0500)
Clinton-Sherman

Weather History for KCSM - September, 2013

Change the Weather History Date:

Friday, September 20, 2013

  Actual Average Record
Temperature  
Mean Temperature 64 °F -  
Max Temperature 71 °F 82 °F 98 °F (1998)
Min Temperature 57 °F 58 °F 51 °F (1999)
Degree Days  
Heating Degree Days 2    
Growing Degree Days 14 (Base 50)    
Moisture  
Dew Point 57 °F    
Average Humidity 75    
Maximum Humidity 93    
Minimum Humidity 51    
Precipitation  
Precipitation 0.02 in - - ()
Sea Level Pressure  
Sea Level Pressure 30.01 in    
Wind  
Wind Speed 11 mph (North)    
Max Wind Speed 22 mph    
Max Gust Speed 23 mph    
Visibility 10 miles    
Events Rain    
Averages and records for this station are not official NWS values.
T = Trace of Precipitation, MM = Missing Value Source: NWS Daily Summary

Daily Weather History Graph

Daily Weather History Graph

Search for Another Location

Airport or City:

Astronomy

Sep. 20, 2013 Rise Set
Actual Time 7:23 AM CDT 7:36 PM CDT
Civil Twilight 6:58 AM CDT 8:01 PM CDT
Nautical Twilight 6:28 AM CDT 8:31 PM CDT
Astronomical Twilight 5:58 AM CDT 9:01 PM CDT
Moon 8:16 PM CDT (9/20) 8:35 AM CDT (9/20)
Length of Visible Light 13h 03m
Length of Day
12h 12m
Full, 98% of the Moon is Illuminated
Sep 20
Full
Sep 26
Last Quarter
Oct 4
New
Oct 11
First Quarter
Oct 18
Full

Hourly Weather History & Observations

Time (CDT) Temp. Dew Point Humidity Pressure Visibility Wind Dir Wind Speed Gust Speed Precip Events Conditions
12:53 AM 68.0 °F 64.9 °F 90% 29.98 in 10.0 mi Calm Calm - 0.02 in Rain Light Rain
1:53 AM 68.0 °F 63.0 °F 84% 29.92 in 10.0 mi SE 8.1 mph - 0.00 in   Mostly Cloudy
2:53 AM 66.9 °F 63.0 °F 87% 29.90 in 10.0 mi West 6.9 mph - N/A   Clear
3:21 AM 66.2 °F 62.6 °F 88% 30.00 in 10.0 mi North 15.0 mph - N/A   Clear
3:53 AM 66.0 °F 64.0 °F 93% 29.95 in 10.0 mi North 12.7 mph - N/A   Clear
4:53 AM 66.0 °F 63.0 °F 90% 29.96 in 10.0 mi North 13.8 mph - N/A   Clear
5:53 AM 64.9 °F 62.1 °F 90% 29.98 in 10.0 mi North 12.7 mph - N/A   Mostly Cloudy
6:53 AM 64.0 °F 60.1 °F 87% 29.99 in 10.0 mi North 18.4 mph 23.0 mph N/A   Clear
7:15 AM 64.4 °F 60.8 °F 88% 30.05 in 10.0 mi North 16.1 mph - N/A   Mostly Cloudy
7:53 AM 64.0 °F 59.0 °F 84% 30.00 in 10.0 mi NNE 17.3 mph - N/A   Overcast
8:53 AM 63.0 °F 57.9 °F 84% 30.00 in 10.0 mi NNE 21.9 mph - N/A   Overcast
9:53 AM 64.0 °F 55.9 °F 75% 30.02 in 10.0 mi NNE 17.3 mph - N/A   Mostly Cloudy
10:53 AM 64.9 °F 55.9 °F 73% 30.04 in 10.0 mi NNE 15.0 mph - N/A   Partly Cloudy
11:53 AM 66.0 °F 55.0 °F 68% 30.04 in 10.0 mi NNE 19.6 mph - N/A   Clear
12:53 PM 66.9 °F 53.1 °F 61% 30.03 in 10.0 mi NNE 20.7 mph - N/A   Clear
1:53 PM 68.0 °F 53.1 °F 59% 30.03 in 10.0 mi NNE 16.1 mph - N/A   Clear
2:53 PM 68.0 °F 53.1 °F 59% 30.01 in 10.0 mi NNE 17.3 mph - N/A   Clear
3:53 PM 68.0 °F 53.1 °F 59% 30.01 in 10.0 mi NNE 18.4 mph - N/A   Clear
4:53 PM 69.1 °F 52.0 °F 54% 30.00 in 10.0 mi NNE 17.3 mph - N/A   Clear
5:53 PM 70.0 °F 52.0 °F 53% 30.00 in 10.0 mi NNE 15.0 mph - N/A   Clear
6:53 PM 70.0 °F 51.1 °F 51% 30.01 in 10.0 mi NNE 12.7 mph - N/A   Clear
7:53 PM 62.1 °F 51.1 °F 67% 30.03 in 10.0 mi NNE 6.9 mph - N/A   Clear
8:53 PM 59.0 °F 51.1 °F 75% 30.04 in 10.0 mi NNE 5.8 mph - N/A   Clear
9:53 PM 57.9 °F 51.1 °F 78% 30.06 in 10.0 mi NNW 4.6 mph - N/A   Clear
10:53 PM 57.0 °F 51.1 °F 81% 30.06 in 10.0 mi NNW 4.6 mph - N/A   Clear
11:53 PM 57.0 °F 51.1 °F 81% 30.06 in 10.0 mi NW 5.8 mph - N/A   Clear